WA6MHA-11 Weather Reports


Display with metric or nautical units.
time (UTC)temp
F
wind
direction
speed
MPH
gust
MPH
rain 1hr
in
rain 24hr
in
rain mn
in
humidity
%
barometer
mb
20191214000210 66 119 3.0 5.0 0.00 0.00 0.00 50 1019.3
20191214000124 66 119 3.0 5.0 0.00 0.00 0.00 50 1019.3
20191213235411 67 110 3.0 4.0 0.00 0.00 0.00 50 1019.2
20191213235322 67 110 3.0 4.0 0.00 0.00 0.00 50 1019.2
20191213234921 67 137 1.0 4.0 0.00 0.00 0.00 50 1019.1
20191213234604 67 128 3.0 8.0 0.00 0.00 0.00 50 1019.4
20191213234519 67 128 3.0 8.0 0.00 0.00 0.00 50 1019.4
20191213234211 67 126 4.0 4.0 0.00 0.00 0.00 49 1019.5
20191213234118 67 126 4.0 4.0 0.00 0.00 0.00 49 1019.5
20191213233759 67 119 2.0 5.0 0.00 0.00 0.00 49 1019.4
20191213233717 67 119 2.0 5.0 0.00 0.00 0.00 49 1019.4
20191213233316 67 123 3.0 7.0 0.00 0.00 0.00 49 1019.4
20191213232914 67 132 7.0 7.0 0.00 0.00 0.00 49 1019.4
20191213232514 67 171 2.0 3.0 0.00 0.00 0.00 49 1019.3
20191213232111 67 126 1.0 4.0 0.00 0.00 0.00 49 1019.5
20191213231806 68 164 3.0 7.0 0.00 0.00 0.00 49 1019.4
20191213231710 68 164 3.0 7.0 0.00 0.00 0.00 49 1019.4
20191213231420 68 146 3.0 9.0 0.00 0.00 0.00 49 1019.3
20191213231309 68 146 3.0 9.0 0.00 0.00 0.00 49 1019.3
20191213230956 68 171 3.0 7.0 0.00 0.00 0.00 49 1019.4
20191213230907 68 171 3.0 7.0 0.00 0.00 0.00 49 1019.4
20191213230555 68 147 3.0 7.0 0.00 0.00 0.00 49 1019.4
20191213230511 68 147 3.0 7.0 0.00 0.00 0.00 49 1019.4
20191213230105 68 101 3.0 6.0 0.00 0.00 0.00 49 1019.6
20191213225357 69 126 1.0 7.0 0.00 0.00 0.00 49 1019.5
20191213225303 69 126 1.0 7.0 0.00 0.00 0.00 49 1019.5
20191213224938 69 180 4.0 5.0 0.00 0.00 0.00 49 1019.5
20191213224901 69 180 4.0 5.0 0.00 0.00 0.00 49 1019.5
20191213224604 69 171 3.0 7.0 0.00 0.00 0.00 49 1019.7
20191213224500 69 171 3.0 7.0 0.00 0.00 0.00 49 1019.7
20191213223751 69 184 5.0 6.0 0.00 0.00 0.00 49 1019.6
20191213223657 69 184 5.0 6.0 0.00 0.00 0.00 49 1019.6
20191213223335 69 173 4.0 6.0 0.00 0.00 0.00 49 1019.5
20191213223256 69 173 4.0 6.0 0.00 0.00 0.00 49 1019.5
20191213222936 69 166 4.0 6.0 0.00 0.00 0.00 49 1019.5
20191213222854 69 166 4.0 6.0 0.00 0.00 0.00 49 1019.5
20191213222530 69 157 3.0 9.0 0.00 0.00 0.00 49 1019.5
20191213222453 69 157 3.0 9.0 0.00 0.00 0.00 49 1019.5
20191213222052 70 175 3.0 6.0 0.00 0.00 0.00 49 1019.5
20191213221740 70 184 3.0 6.0 0.00 0.00 0.00 49 1019.5
20191213221652 70 184 3.0 6.0 0.00 0.00 0.00 49 1019.5
20191213221334 70 155 4.0 5.0 0.00 0.00 0.00 49 1019.6
20191213221249 70 155 4.0 5.0 0.00 0.00 0.00 49 1019.6
20191213220959 70 162 2.0 6.0 0.00 0.00 0.00 49 1019.7
20191213220848 70 162 2.0 6.0 0.00 0.00 0.00 49 1019.7
20191213220556 70 135 3.0 8.0 0.00 0.00 0.00 49 1019.6
20191213220446 70 135 3.0 8.0 0.00 0.00 0.00 49 1019.6
20191213220140 70 170 2.0 6.0 0.00 0.00 0.00 49 1019.6
20191213220046 70 170 2.0 6.0 0.00 0.00 0.00 49 1019.6
20191213215734 70 119 10.0 12.0 0.00 0.00 0.00 49 1019.7
20191213215644 70 119 10.0 12.0 0.00 0.00 0.00 49 1019.7
20191213215243 70 117 7.0 8.0 0.00 0.00 0.00 49 1019.8
20191213214539 70 130 5.0 9.0 0.00 0.00 0.00 49 1019.8
20191213214440 70 130 5.0 9.0 0.00 0.00 0.00 49 1019.8
20191213214133 70 101 9.0 9.0 0.00 0.00 0.00 49 1019.9
20191213214038 70 101 9.0 9.0 0.00 0.00 0.00 49 1019.9
20191213213711 70 119 7.0 9.0 0.00 0.00 0.00 49 1019.8
20191213213637 70 119 7.0 9.0 0.00 0.00 0.00 49 1019.8
20191213213326 70 103 9.0 9.0 0.00 0.00 0.00 49 1019.9
20191213213236 70 103 9.0 9.0 0.00 0.00 0.00 49 1019.9
20191213212915 70 135 3.0 10.0 0.00 0.00 0.00 49 1019.9
20191213212835 70 135 3.0 10.0 0.00 0.00 0.00 49 1019.9
20191213212516 70 162 4.0 7.0 0.00 0.00 0.00 50 1020.0
20191213212436 70 162 4.0 7.0 0.00 0.00 0.00 50 1020.0
20191213212032 70 112 6.0 10.0 0.00 0.00 0.00 50 1020.0
20191213211726 71 87 6.0 8.0 0.00 0.00 0.00 50 1020.0
20191213211630 71 87 6.0 8.0 0.00 0.00 0.00 50 1020.0
20191213211326 71 121 6.0 9.0 0.00 0.00 0.00 50 1020.1
20191213211229 71 121 6.0 9.0 0.00 0.00 0.00 50 1020.1
20191213210910 71 114 8.0 9.0 0.00 0.00 0.00 50 1020.1
20191213210828 71 114 8.0 9.0 0.00 0.00 0.00 50 1020.1
20191213210532 71 123 6.0 10.0 0.00 0.00 0.00 50 1020.2
20191213210427 71 123 6.0 10.0 0.00 0.00 0.00 50 1020.2
20191213210026 71 121 7.0 9.0 0.00 0.00 0.00 50 1020.2
20191213204915 71 117 5.0 12.0 0.00 0.00 0.00 51 1020.3
20191213204822 71 117 5.0 12.0 0.00 0.00 0.00 51 1020.3
20191213204421 71 139 7.0 13.0 0.00 0.00 0.00 51 1020.3
20191213203618 70 94 3.0 9.0 0.00 0.00 0.00 51 1020.5
20191213203216 70 135 1.0 9.0 0.00 0.00 0.00 52 1020.5
20191213202814 70 137 2.0 9.0 0.00 0.00 0.00 52 1020.6
20191213202057 70 126 8.0 10.0 0.00 0.00 0.00 52 1020.6
20191213202012 70 126 8.0 10.0 0.00 0.00 0.00 52 1020.6
20191213201651 70 105 5.0 9.0 0.00 0.00 0.00 53 1020.8
20191213201613 70 105 5.0 9.0 0.00 0.00 0.00 53 1020.8
20191213201249 70 85 5.0 8.0 0.00 0.00 0.00 53 1020.9
20191213201210 70 85 5.0 8.0 0.00 0.00 0.00 53 1020.9
20191213200906 70 128 4.0 9.0 0.00 0.00 0.00 53 1020.9
20191213200808 70 128 4.0 9.0 0.00 0.00 0.00 53 1020.9
20191213200520 69 85 6.0 10.0 0.00 0.00 0.00 53 1021.0
20191213200407 69 85 6.0 10.0 0.00 0.00 0.00 53 1021.0
20191213200057 70 110 8.0 10.0 0.00 0.00 0.00 54 1021.1
20191213200007 70 110 8.0 10.0 0.00 0.00 0.00 54 1021.1
20191213195700 70 101 7.0 9.0 0.00 0.00 0.00 54 1021.2
20191213195604 70 101 7.0 9.0 0.00 0.00 0.00 54 1021.2
20191213195248 70 108 9.0 10.0 0.00 0.00 0.00 54 1021.3
20191213195203 70 108 9.0 10.0 0.00 0.00 0.00 54 1021.3
20191213194837 70 128 6.0 12.0 0.00 0.00 0.00 55 1021.3
20191213194803 70 128 6.0 12.0 0.00 0.00 0.00 55 1021.3
20191213194455 70 69 9.0 9.0 0.00 0.00 0.00 55 1021.3
20191213194400 70 69 9.0 9.0 0.00 0.00 0.00 55 1021.3
20191213194054 69 87 9.0 9.0 0.00 0.00 0.00 55 1021.4
20191213193959 69 87 9.0 9.0 0.00 0.00 0.00 55 1021.4
20191213193634 70 96 8.0 8.0 0.00 0.00 0.00 55 1021.5
20191213193557 70 96 8.0 8.0 0.00 0.00 0.00 55 1021.5
20191213193156 69 112 5.0 7.0 0.00 0.00 0.00 56 1021.5
20191213192434 69 117 5.0 6.0 0.00 0.00 0.00 56 1021.6
20191213192354 69 117 5.0 6.0 0.00 0.00 0.00 56 1021.6
20191213192057 69 87 0.0 6.0 0.00 0.00 0.00 57 1021.6
20191213191953 69 87 0.0 6.0 0.00 0.00 0.00 57 1021.6
20191213191551 68 184 3.0 4.0 0.00 0.00 0.00 57 1021.8
20191213190834 68 122 2.0 7.0 0.00 0.00 0.00 57 1021.9
20191213190749 68 122 2.0 7.0 0.00 0.00 0.00 57 1021.9
20191213190348 67 87 2.0 3.0 0.00 0.00 0.00 58 1022.1
20191213185629 67 96 2.0 5.0 0.00 0.00 0.00 58 1022.3
20191213185544 67 96 2.0 5.0 0.00 0.00 0.00 58 1022.3
20191213185242 67 182 4.0 5.0 0.00 0.00 0.00 59 1022.2
20191213185143 67 182 4.0 5.0 0.00 0.00 0.00 59 1022.2
20191213184837 67 182 1.0 5.0 0.00 0.00 0.00 59 1022.4
20191213184742 67 182 1.0 5.0 0.00 0.00 0.00 59 1022.4
20191213184340 66 240 4.0 5.0 0.00 0.00 0.00 59 1022.5
20191213183940 66 180 1.0 5.0 0.00 0.00 0.00 60 1022.5
20191213183219 65 270 0.0 2.0 0.00 0.00 0.00 60 1022.6
20191213183136 65 270 0.0 2.0 0.00 0.00 0.00 60 1022.6
20191213182816 65 290 1.0 3.0 0.00 0.00 0.00 61 1022.6
20191213182735 65 290 1.0 3.0 0.00 0.00 0.00 61 1022.6
20191213182334 64 177 2.0 2.0 0.00 0.00 0.00 61 1022.6
20191213181531 63 270 0.0 2.0 0.00 0.00 0.00 62 1022.7
20191213181227 63 92 1.0 2.0 0.00 0.00 0.00 62 1022.7
20191213181130 63 92 1.0 2.0 0.00 0.00 0.00 62 1022.7
20191213180729 63 47 2.0 4.0 0.00 0.00 0.00 62 1022.7
20191213180008 61 135 2.0 4.0 0.00 0.00 0.00 63 1022.7
20191213175926 61 135 2.0 4.0 0.00 0.00 0.00 63 1022.7
20191213175630 61 45 3.0 8.0 0.00 0.00 0.00 63 1022.8
20191213175525 61 45 3.0 8.0 0.00 0.00 0.00 63 1022.8
20191213174723 60 25 3.0 5.0 0.00 0.00 0.00 64 1022.8
20191213174419 59 45 2.0 4.0 0.00 0.00 0.00 64 1022.7
20191213174321 59 45 2.0 4.0 0.00 0.00 0.00 64 1022.7
20191213174003 59 92 2.0 3.0 0.00 0.00 0.00 64 1022.8
20191213173919 59 92 2.0 3.0 0.00 0.00 0.00 64 1022.8
20191213173641 58 60 3.0 3.0 0.00 0.00 0.00 64 1022.9
20191213173518 58 60 3.0 3.0 0.00 0.00 0.00 64 1022.9
20191213172758 58 0 1.0 2.0 0.00 0.00 0.00 65 1022.9
20191213172716 58 0 1.0 2.0 0.00 0.00 0.00 65 1022.9
20191213172359 57 315 0.0 2.0 0.00 0.00 0.00 65 1022.9
20191213172315 57 315 0.0 2.0 0.00 0.00 0.00 65 1022.9
20191213172005 57 335 2.0 2.0 0.00 0.00 0.00 65 1022.9
20191213171915 57 335 2.0 2.0 0.00 0.00 0.00 65 1022.9
20191213105300 45 270 0.0 1.0 0.00 0.00 0.00 64 1023.1
20191213104858 45 270 0.0 1.0 0.00 0.00 0.00 64 1023.2
20191213104457 45 270 1.0 1.0 0.00 0.00 0.00 64 1023.2
20191213103655 46 270 0.0 0.0 0.00 0.00 0.00 64 1023.3
20191213102852 46 270 1.0 1.0 0.00 0.00 0.00 64 1023.3
20191213102724 46 270 1.0 1.0 0.00 0.00 0.00 64 1023.3
20191213102452 46 270 1.0 1.0 0.00 0.00 0.00 64 1023.3
20191213102252 46 90 1.0 1.0 0.00 0.00 0.00 64 1023.3
20191213102049 46 90 1.0 1.0 0.00 0.00 0.00 64 1023.3
20191213101907 46 90 0.0 0.0 0.00 0.00 0.00 64 1023.4
20191213101651 46 90 0.0 0.0 0.00 0.00 0.00 64 1023.4
20191213101247 46 90 0.0 0.0 0.00 0.00 0.00 63 1023.3
20191213101041 46 90 0.0 0.0 0.00 0.00 0.00 63 1023.4
20191213100846 46 90 0.0 0.0 0.00 0.00 0.00 63 1023.4
20191213100658 46 90 0.0 0.0 0.00 0.00 0.00 64 1023.4
20191213100444 46 90 0.0 0.0 0.00 0.00 0.00 64 1023.4
20191213100300 47 90 0.0 0.0 0.00 0.00 0.00 64 1023.4
20191213100043 47 90 0.0 0.0 0.00 0.00 0.00 64 1023.4
20191213095852 47 90 0.0 1.0 0.00 0.00 0.00 64 1023.5
20191213095642 47 90 0.0 1.0 0.00 0.00 0.00 64 1023.5
20191213095514 47 90 1.0 1.0 0.00 0.00 0.00 64 1023.5
20191213095241 47 90 1.0 1.0 0.00 0.00 0.00 64 1023.5
20191213095059 47 270 0.0 0.0 0.00 0.00 0.00 63 1023.4
20191213094842 47 270 0.0 0.0 0.00 0.00 0.00 63 1023.4
20191213094839 47 270 0.0 0.0 0.00 0.00 0.00 63 1023.4
20191213094832 47 270 0.0 1.0 0.00 0.00 0.00 63 1023.4
20191213094439 47 270 0.0 1.0 0.00 0.00 0.00 63 1023.4
20191213094209 47 270 1.0 1.0 0.00 0.00 0.00 63 1023.4
20191213094038 47 270 1.0 1.0 0.00 0.00 0.00 63 1023.4
20191213093635 47 0 0.0 0.0 0.00 0.00 0.00 63 1023.3
20191213093058 47 315 0.0 1.0 0.00 0.00 0.00 63 1023.3
20191213092832 47 315 0.0 1.0 0.00 0.00 0.00 63 1023.3
20191213092643 47 270 0.0 0.0 0.00 0.00 0.00 63 1023.3
20191213092431 47 270 0.0 0.0 0.00 0.00 0.00 63 1023.3
20191213091628 48 315 0.0 2.0 0.00 0.00 0.00 63 1023.2
20191213091518 48 315 0.0 0.0 0.00 0.00 0.00 63 1023.2
20191213091227 48 315 0.0 0.0 0.00 0.00 0.00 63 1023.2
20191213090635 48 270 0.0 1.0 0.00 0.00 0.00 63 1023.1
20191213090424 48 270 0.0 1.0 0.00 0.00 0.00 63 1023.1
20191213090211 48 270 1.0 1.0 0.00 0.00 0.00 63 1023.1
20191213090023 48 270 1.0 1.0 0.00 0.00 0.00 63 1023.1
20191213085455 48 270 0.0 1.0 0.00 0.00 0.00 63 1023.0
20191213085220 48 270 0.0 1.0 0.00 0.00 0.00 63 1023.0
20191213085046 48 225 1.0 1.0 0.00 0.00 0.00 63 1023.0
20191213085015 48 225 1.0 1.0 0.00 0.00 0.00 63 1023.0
20191213084851 48 225 1.0 1.0 0.00 0.00 0.00 63 1023.0
20191213084819 48 225 1.0 1.0 0.00 0.00 0.00 63 1023.0
20191213084214 49 220 1.0 1.0 0.00 0.00 0.00 63 1023.0
20191213084019 49 220 1.0 1.0 0.00 0.00 0.00 63 1023.0
20191213083615 49 225 0.0 1.0 0.00 0.00 0.00 63 1023.1
20191213083214 49 225 1.0 1.0 0.00 0.00 0.00 63 1023.1
20191213083058 49 0 0.0 2.0 0.00 0.00 0.00 63 1023.0
20191213082813 49 0 0.0 2.0 0.00 0.00 0.00 63 1023.0
20191213082411 49 328 1.0 4.0 0.00 0.00 0.00 63 1023.0
20191213082211 49 315 3.0 6.0 0.00 0.00 0.00 63 1023.0
20191213082010 49 315 3.0 6.0 0.00 0.00 0.00 63 1023.0
20191213081609 49 270 1.0 2.0 0.00 0.00 0.00 63 1023.0
20191213081429 49 315 1.0 3.0 0.00 0.00 0.00 63 1023.0
20191213081208 49 315 1.0 3.0 0.00 0.00 0.00 63 1023.0
20191213081029 49 225 1.0 3.0 0.00 0.00 0.00 63 1023.2
20191213080806 49 225 1.0 3.0 0.00 0.00 0.00 63 1023.2
20191213080611 49 270 0.0 1.0 0.00 0.00 0.00 62 1023.1
20191213080405 49 270 0.0 1.0 0.00 0.00 0.00 62 1023.1
20191213080154 49 0 0.0 2.0 0.00 0.00 0.00 62 1023.0
20191213080003 49 0 0.0 2.0 0.00 0.00 0.00 62 1023.0
20191213075756 49 0 1.0 4.0 0.00 0.00 0.00 62 1023.1
20191213075602 49 0 1.0 4.0 0.00 0.00 0.00 62 1023.1
20191213075359 49 315 1.0 2.0 0.00 0.00 0.00 62 1023.0
20191213075201 49 315 1.0 2.0 0.00 0.00 0.00 62 1023.0
20191213074359 49 270 0.0 1.0 0.00 0.00 0.00 62 1023.1
20191213074156 49 90 0.0 1.0 0.00 0.00 0.00 62 1023.0
20191213073957 49 90 0.0 1.0 0.00 0.00 0.00 62 1023.0
20191213073736 49 90 0.0 1.0 0.00 0.00 0.00 62 1023.0
20191213073555 49 90 0.0 1.0 0.00 0.00 0.00 62 1023.0
20191213073154 50 90 0.0 2.0 0.00 0.00 0.00 62 1022.9
20191213072646 50 45 1.0 1.0 0.00 0.00 0.00 62 1022.9
20191213072352 50 45 1.0 1.0 0.00 0.00 0.00 62 1022.9
20191213071404 51 180 1.0 1.0 0.00 0.00 0.00 62 1023.1
20191213071147 51 180 1.0 1.0 0.00 0.00 0.00 62 1023.1
20191213071010 51 67 0.0 0.0 0.00 0.00 0.00 62 1023.1
20191213070746 51 67 0.0 0.0 0.00 0.00 0.00 62 1023.1
20191213070504 51 67 0.0 0.0 0.00 0.00 0.00 62 1023.2
20191213070345 51 67 0.0 0.0 0.00 0.00 0.00 62 1023.2
20191213070136 51 135 0.0 0.0 0.00 0.00 0.00 62 1023.2
20191213065944 51 135 0.0 0.0 0.00 0.00 0.00 62 1023.2
20191213065725 52 135 0.0 1.0 0.00 0.00 0.00 62 1023.1
20191213065543 52 135 0.0 1.0 0.00 0.00 0.00 62 1023.1
20191213065000 52 135 1.0 2.0 0.00 0.00 0.00 62 1023.1
20191213064739 52 135 1.0 2.0 0.00 0.00 0.00 62 1023.1
20191213064617 52 121 2.0 3.0 0.00 0.00 0.00 62 1023.2
20191213064338 52 121 2.0 3.0 0.00 0.00 0.00 62 1023.2
20191213064113 52 135 3.0 3.0 0.00 0.00 0.00 62 1023.3
20191213063937 52 135 3.0 3.0 0.00 0.00 0.00 62 1023.3
20191213063327 52 135 1.0 2.0 0.00 0.00 0.00 62 1023.3
20191213063135 52 135 1.0 2.0 0.00 0.00 0.00 62 1023.3
20191213063022 52 135 3.0 3.0 0.00 0.00 0.00 62 1023.2
20191213062738 52 135 3.0 3.0 0.00 0.00 0.00 62 1023.2
20191213062517 52 180 1.0 3.0 0.00 0.00 0.00 62 1023.1
20191213062331 52 180 1.0 3.0 0.00 0.00 0.00 62 1023.1
20191213062118 52 180 1.0 4.0 0.00 0.00 0.00 62 1023.2
20191213061931 52 180 1.0 4.0 0.00 0.00 0.00 62 1023.2
20191213061703 52 180 4.0 4.0 0.00 0.00 0.00 61 1023.1
20191213061529 52 180 4.0 4.0 0.00 0.00 0.00 61 1023.1
20191213061321 52 90 4.0 6.0 0.00 0.00 0.00 61 1023.1
20191213061130 52 90 4.0 6.0 0.00 0.00 0.00 61 1023.1
20191213060924 52 45 3.0 4.0 0.00 0.00 0.00 61 1023.2
20191213060727 52 45 3.0 4.0 0.00 0.00 0.00 61 1023.2
20191213060502 52 90 5.0 6.0 0.00 0.00 0.00 61 1023.1
20191213060325 52 90 5.0 6.0 0.00 0.00 0.00 61 1023.1
20191213060111 52 90 4.0 4.0 0.00 0.00 0.00 61 1023.2
20191213055924 52 90 4.0 4.0 0.00 0.00 0.00 61 1023.2
20191213055302 52 90 1.0 1.0 0.00 0.00 0.00 61 1023.1
20191213055121 52 90 1.0 1.0 0.00 0.00 0.00 61 1023.1
20191213054932 52 45 0.0 4.0 0.00 0.00 0.00 61 1023.1
20191213054720 52 45 0.0 4.0 0.00 0.00 0.00 61 1023.1
20191213054522 53 270 4.0 5.0 0.00 0.00 0.00 61 1023.1
20191213054319 53 270 4.0 5.0 0.00 0.00 0.00 61 1023.1
20191213054101 53 270 2.0 3.0 0.00 0.00 0.00 61 1023.1
20191213053917 53 270 2.0 3.0 0.00 0.00 0.00 61 1023.1
20191213053516 53 292 3.0 3.0 0.00 0.00 0.00 61 1023.1
20191213053252 53 270 1.0 3.0 0.00 0.00 0.00 61 1023.2
20191213053114 53 270 1.0 3.0 0.00 0.00 0.00 61 1023.2
20191213052851 53 315 2.0 3.0 0.00 0.00 0.00 60 1023.1
20191213052713 53 315 2.0 3.0 0.00 0.00 0.00 60 1023.1
20191213051911 53 270 2.0 2.0 0.00 0.00 0.00 60 1023.2
20191213051649 54 348 1.0 2.0 0.00 0.00 0.00 60 1023.2
20191213051510 54 348 1.0 2.0 0.00 0.00 0.00 60 1023.2
20191213051302 54 225 2.0 2.0 0.00 0.00 0.00 60 1023.3
20191213051108 54 225 2.0 2.0 0.00 0.00 0.00 60 1023.3
20191213050929 54 225 1.0 1.0 0.00 0.00 0.00 60 1023.4
20191213050707 54 225 1.0 1.0 0.00 0.00 0.00 60 1023.4
20191213050452 54 90 1.0 2.0 0.00 0.00 0.00 60 1023.5
20191213050305 54 90 1.0 2.0 0.00 0.00 0.00 60 1023.5
20191213050124 55 45 1.0 1.0 0.00 0.00 0.00 60 1023.4
20191213045904 55 45 1.0 1.0 0.00 0.00 0.00 60 1023.4
20191213045250 55 270 1.0 1.0 0.00 0.00 0.00 60 1023.4
20191213045055 55 270 1.0 1.0 0.00 0.00 0.00 60 1023.4
20191213044520 56 101 2.0 3.0 0.00 0.00 0.00 60 1023.4
20191213044253 56 101 2.0 3.0 0.00 0.00 0.00 60 1023.4
20191213044104 56 135 0.0 3.0 0.00 0.00 0.00 60 1023.5
20191213043851 56 135 0.0 3.0 0.00 0.00 0.00 60 1023.5
20191213043727 56 135 0.0 3.0 0.00 0.00 0.00 60 1023.6
20191213043451 56 135 0.0 3.0 0.00 0.00 0.00 60 1023.6
20191213043258 56 173 2.0 2.0 0.00 0.00 0.00 60 1023.4
20191213043049 56 173 2.0 2.0 0.00 0.00 0.00 60 1023.4
20191213042832 57 180 0.0 3.0 0.00 0.00 0.00 60 1023.4
20191213042647 57 180 0.0 3.0 0.00 0.00 0.00 60 1023.4
20191213042435 57 121 5.0 5.0 0.00 0.00 0.00 60 1023.4
20191213042358 57 121 5.0 5.0 0.00 0.00 0.00 60 1023.4
20191213042246 57 121 5.0 5.0 0.00 0.00 0.00 60 1023.4
20191213042055 57 0 2.0 4.0 0.00 0.00 0.00 60 1023.3
20191213041845 57 0 2.0 4.0 0.00 0.00 0.00 60 1023.3
20191213041311 56 344 2.0 3.0 0.00 0.00 0.00 60 1023.3
20191213041043 56 344 2.0 3.0 0.00 0.00 0.00 60 1023.3
20191213040821 56 0 2.0 3.0 0.00 0.00 0.00 59 1023.3
20191213040641 56 0 2.0 3.0 0.00 0.00 0.00 59 1023.3
20191213040555 56 45 2.0 3.0 0.00 0.00 0.00 59 1023.3
20191213040240 56 45 2.0 3.0 0.00 0.00 0.00 59 1023.3
20191213040026 56 45 1.0 3.0 0.00 0.00 0.00 59 1023.2
20191213035838 56 45 1.0 3.0 0.00 0.00 0.00 59 1023.2
20191213035224 56 330 4.0 4.0 0.00 0.00 0.00 59 1023.2
20191213035036 56 330 4.0 4.0 0.00 0.00 0.00 59 1023.2
20191213034847 56 45 3.0 4.0 0.00 0.00 0.00 59 1023.2
20191213034634 56 45 3.0 4.0 0.00 0.00 0.00 59 1023.2
20191213034014 57 258 3.0 4.0 0.00 0.00 0.00 59 1023.0
20191213033832 57 258 3.0 4.0 0.00 0.00 0.00 59 1023.0
20191213033702 56 270 4.0 4.0 0.00 0.00 0.00 59 1023.1
20191213033430 56 270 4.0 4.0 0.00 0.00 0.00 59 1023.1
20191213032628 56 315 2.0 4.0 0.00 0.00 0.00 58 1023.2
20191213032409 56 0 1.0 5.0 0.00 0.00 0.00 58 1023.2
20191213032227 56 0 1.0 5.0 0.00 0.00 0.00 58 1023.2
20191213032008 56 297 2.0 7.0 0.00 0.00 0.00 58 1023.2
20191213031837 56 297 2.0 7.0 0.00 0.00 0.00 58 1023.2
20191213031612 56 261 5.0 5.0 0.00 0.00 0.00 58 1023.1
20191213031424 56 261 5.0 5.0 0.00 0.00 0.00 58 1023.1
20191213031209 55 9 1.0 2.0 0.00 0.00 0.00 57 1023.1
20191213031022 55 9 1.0 2.0 0.00 0.00 0.00 57 1023.1
20191213030816 55 0 0.0 5.0 0.00 0.00 0.00 57 1023.2
20191213030622 55 0 0.0 5.0 0.00 0.00 0.00 57 1023.2
20191213030220 55 330 0.0 5.0 0.00 0.00 0.00 57 1023.2
20191213030017 55 2 3.0 5.0 0.00 0.00 0.00 57 1023.3
20191213025819 55 2 3.0 5.0 0.00 0.00 0.00 57 1023.3
20191213025604 55 211 3.0 3.0 0.00 0.00 0.00 56 1023.1
20191213025421 55 211 3.0 3.0 0.00 0.00 0.00 56 1023.1
20191213025202 55 157 1.0 4.0 0.00 0.00 0.00 56 1023.2
20191213025016 55 157 1.0 4.0 0.00 0.00 0.00 56 1023.2
20191213024803 55 173 3.0 4.0 0.00 0.00 0.00 56 1023.2
20191213024615 55 173 3.0 4.0 0.00 0.00 0.00 56 1023.2
20191213024411 56 45 3.0 3.0 0.00 0.00 0.00 56 1023.2
20191213024213 56 45 3.0 3.0 0.00 0.00 0.00 56 1023.2
20191213023959 56 315 0.0 3.0 0.00 0.00 0.00 56 1023.2
20191213023815 56 315 0.0 3.0 0.00 0.00 0.00 56 1023.2
20191213023555 56 90 0.0 2.0 0.00 0.00 0.00 55 1023.2
20191213023411 56 90 0.0 2.0 0.00 0.00 0.00 55 1023.2
20191213023140 56 270 1.0 3.0 0.00 0.00 0.00 55 1023.2
20191213023010 56 270 1.0 3.0 0.00 0.00 0.00 55 1023.2
20191213022756 57 225 1.0 2.0 0.00 0.00 0.00 55 1023.3
20191213022608 57 225 1.0 2.0 0.00 0.00 0.00 55 1023.3
20191213022424 57 315 1.0 1.0 0.00 0.00 0.00 55 1023.3
20191213022207 57 315 1.0 1.0 0.00 0.00 0.00 55 1023.3
20191213021949 58 0 1.0 2.0 0.00 0.00 0.00 55 1023.4
20191213021805 58 0 1.0 2.0 0.00 0.00 0.00 55 1023.4
20191213021607 58 225 1.0 1.0 0.00 0.00 0.00 54 1023.2
20191213021404 58 225 1.0 1.0 0.00 0.00 0.00 54 1023.2
20191213021205 58 236 1.0 1.0 0.00 0.00 0.00 54 1023.2
20191213021003 58 236 1.0 1.0 0.00 0.00 0.00 54 1023.2
20191213020741 58 28 0.0 1.0 0.00 0.00 0.00 54 1023.2
20191213020602 58 28 0.0 1.0 0.00 0.00 0.00 54 1023.2
20191213020200 58 270 1.0 2.0 0.00 0.00 0.00 54 1023.2
20191213020004 58 270 1.0 2.0 0.00 0.00 0.00 53 1023.2
20191213015800 58 270 1.0 2.0 0.00 0.00 0.00 53 1023.2
20191213015636 59 315 1.0 3.0 0.00 0.00 0.00 53 1023.1
20191213015400 59 315 1.0 3.0 0.00 0.00 0.00 53 1023.1
20191213015200 59 184 1.0 2.0 0.00 0.00 0.00 53 1023.1
20191213014956 59 184 1.0 2.0 0.00 0.00 0.00 53 1023.1
20191213013530 60 0 2.0 3.0 0.00 0.00 0.00 52 1023.1
20191213013350 60 0 2.0 3.0 0.00 0.00 0.00 52 1023.1
20191213013152 61 90 1.0 1.0 0.00 0.00 0.00 52 1023.1
20191213013028 61 90 1.0 1.0 0.00 0.00 0.00 52 1023.1
20191213012950 61 90 1.0 1.0 0.00 0.00 0.00 52 1023.1
20191213012741 61 90 1.0 1.0 0.00 0.00 0.00 51 1023.0
20191213012548 61 90 1.0 1.0 0.00 0.00 0.00 51 1023.0
20191213012304 61 90 1.0 1.0 0.00 0.00 0.00 51 1023.0
20191213012150 61 90 1.0 1.0 0.00 0.00 0.00 51 1023.0
20191213011928 62 105 2.0 2.0 0.00 0.00 0.00 51 1023.0
20191213011746 62 105 2.0 2.0 0.00 0.00 0.00 51 1023.0
20191213011507 62 90 1.0 1.0 0.00 0.00 0.00 50 1023.1
20191213011344 62 90 1.0 1.0 0.00 0.00 0.00 50 1023.1
20191213011122 62 90 1.0 2.0 0.00 0.00 0.00 50 1023.1
20191213010943 62 90 1.0 2.0 0.00 0.00 0.00 50 1023.1
20191213010311 63 83 1.0 3.0 0.00 0.00 0.00 50 1023.0
20191213010140 63 83 1.0 3.0 0.00 0.00 0.00 50 1023.0
20191213005534 64 101 3.0 3.0 0.00 0.00 0.00 49 1022.9
20191213005338 64 101 3.0 3.0 0.00 0.00 0.00 49 1022.9
20191213005055 64 85 3.0 3.0 0.00 0.00 0.00 49 1022.9
20191213004936 64 85 3.0 3.0 0.00 0.00 0.00 49 1022.9
20191213004716 64 90 3.0 4.0 0.00 0.00 0.00 49 1022.9
20191213004535 64 90 3.0 4.0 0.00 0.00 0.00 49 1022.9
20191213004338 65 81 4.0 5.0 0.00 0.00 0.00 48 1022.9
20191213004134 65 81 4.0 5.0 0.00 0.00 0.00 48 1022.9
20191213003905 65 94 3.0 4.0 0.00 0.00 0.00 48 1022.8
20191213003733 65 94 3.0 4.0 0.00 0.00 0.00 48 1022.8
20191213003528 66 94 2.0 3.0 0.00 0.00 0.00 48 1022.8
20191213003332 66 94 2.0 3.0 0.00 0.00 0.00 48 1022.8
20191213003056 66 101 3.0 4.0 0.00 0.00 0.00 48 1022.7
20191213002930 66 101 3.0 4.0 0.00 0.00 0.00 48 1022.7
20191213002719 67 105 5.0 5.0 0.00 0.00 0.00 48 1022.7
20191213002528 67 105 5.0 5.0 0.00 0.00 0.00 48 1022.7
20191213002337 67 114 2.0 2.0 0.00 0.00 0.00 47 1022.7
20191213002127 67 114 2.0 2.0 0.00 0.00 0.00 47 1022.7
20191213001903 67 135 0.0 4.0 0.00 0.00 0.00 47 1022.6
20191213001726 67 135 0.0 4.0 0.00 0.00 0.00 47 1022.6
20191213001505 67 135 2.0 4.0 0.00 0.00 0.00 47 1022.7
20191213001324 67 135 2.0 4.0 0.00 0.00 0.00 47 1022.7
20191213001121 67 117 3.0 4.0 0.00 0.00 0.00 47 1022.6
20191213000923 67 117 3.0 4.0 0.00 0.00 0.00 47 1022.6
20191213000714 67 126 4.0 6.0 0.00 0.00 0.00 46 1022.7
20191213000522 67 126 4.0 6.0 0.00 0.00 0.00 46 1022.7